[[{"header":{"parameterUnit":"m.s-1","parameterCategory":2,"la1":30.2991,"la2":30.254,"lo1":-89.0895,"lo2":-89.0444,"dy":0.0017,"dx":0.0017,"nx":28,"ny":28,"refTime":"2026-02-05T03:00:00:Z","depth":"0","parameterNumber":2,"parameterNumberName":"U-component_of_CURRENTS"},"data":[0,0,0,0,0,0,0,0,0,0,0,0,0,0,0,0,0,0,0,0,0,0,0,0,0,0,0,0,0,0,0,0,0,0,0,0,0,0,0,0,0,0,0,0,0,0,0,0,0,0,0,0,0,0,0,0,0,0,0.1548,0.1548,0,0.1556,0.1555,0.1555,0.1575,0.1576,0.1576,0.1577,0.1553,0.1552,0.1551,0,0,0,0,0,0,0,0,0,0,0,0,0,0.15,0.1501,0.1548,0.1549,0.1549,0.1556,0.1555,0.1555,0.1575,0.1576,0.1577,0.1577,0.1554,0.1552,0.1551,0,0,0,0,0,0,0,0,0,0,0,0,0,0.1513,0.1501,0.1548,0.1562,0.1563,0.1556,0.1555,0.1555,0.1575,0.1576,0.1577,0.1578,0.1554,0.1552,0.155,0.1517,0,0,0.1544,0.1544,0,0,0,0,0,0,0,0,0.1512,0.1514,0.1559,0.1561,0.1563,0.1568,0.153,0.1542,0.1574,0.1567,0.1577,0.1578,0.1556,0.1554,0.155,0.1516,0.1515,0.1544,0.1543,0.1542,0.1542,0,0,0,0,0,0,0,0.1511,0.1514,0.1548,0.156,0.1562,0.155,0.1553,0.1532,0.1553,0.1568,0.157,0.1575,0.1557,0.1551,0.1549,0.1515,0.1544,0.1543,0.1541,0.1541,0.1506,0.1506,0,0,0,0,0,0,0.1518,0.1513,0.1548,0.1549,0.1543,0.1551,0.1554,0.1563,0.1554,0.1555,0.1574,0.1576,0.1554,0.1551,0.1548,0.1598,0.1542,0.154,0.1539,0.1506,0.1506,0.1506,0,0,0,0,0,0,0.1517,0.1521,0.1548,0.1533,0.1536,0.1551,0.156,0.1562,0.1565,0.156,0.156,0.1576,0.1555,0.1551,0.154,0.1594,0.154,0.1538,0.1505,0.1506,0.1506,0.164,0,0,0,0,0,0,0.1516,0.1521,0.1523,0.1534,0.1537,0.1551,0.156,0.1562,0.1568,0.157,0.1561,0.1559,0.1555,0.1543,0.1538,0.159,0.1536,0.1505,0.1506,0.1506,0.1635,0.1645,0.1653,0,0,0,0,0,0.1514,0.1521,0.1523,0.1527,0.1542,0.1551,0.1552,0.1563,0.1567,0.1568,0.1564,0.156,0.1543,0.1541,0.1536,0.1589,0.1505,0.1505,0.1506,0.1631,0.1643,0.1653,0,0,0,0,0,0,0.1503,0.1524,0.1526,0.154,0.1547,0.1556,0.1559,0.1562,0.1559,0.1559,0.1554,0.1552,0.1564,0.1538,0.1537,0.1574,0.1526,0.1526,0.1623,0.1634,0.1643,0.174,0.1535,0,0,0,0,0,0.15,0.151,0.1525,0.1533,0.1539,0.1545,0.1548,0.1555,0.1557,0.1557,0.1553,0.1548,0.1558,0.1566,0.155,0.1564,0.1611,0.1592,0.1601,0.1609,0.1681,0.1795,0.1824,0.1508,0.1508,0.1508,0,0,0.1497,0.151,0.1516,0.1531,0.1536,0.1553,0.1549,0.1556,0.1585,0.1552,0.1577,0.1567,0.1561,0.1589,0.1594,0.1581,0.171,0.161,0.1618,0.1687,0.1799,0.1831,0.186,0.1508,0.1508,0.1508,0,0,0.15,0.1509,0.1518,0.1528,0.1539,0.1552,0.1556,0.1565,0.1586,0.1587,0.1598,0.1644,0.1597,0.1669,0.1684,0.1729,0.1743,0.1685,0.1834,0.1942,0.1972,0.1999,0.2061,0.2093,0.1706,0.1706,0.1706,0,0.1494,0.151,0.152,0.1533,0.1547,0.1556,0.1572,0.1598,0.1605,0.1656,0.1601,0.167,0.1663,0.1794,0.1824,0.1765,0.18,0.18,0.1964,0.1992,0.2017,0.2075,0.2109,0.1712,0.1712,0.1711,0.171,0,0.1506,0.1517,0.1524,0.1551,0.1569,0.1579,0.162,0.1659,0.1667,0.1709,0.1802,0.181,0.188,0.1874,0.1869,0.2054,0.2008,0.1956,0.1959,0.2059,0.211,0.2143,0.1722,0.1719,0.1717,0.1716,0,0,0.1501,0.1526,0.1529,0.1553,0.1577,0.1605,0.1672,0.1761,0.1846,0.187,0.1984,0.2061,0.2102,0.2127,0.2139,0.2258,0.2452,0.2202,0.2204,0.2304,0.2671,0.258,0.2605,0.2426,0.2433,0.2439,0.2623,0,0.1504,0.1529,0.1546,0.1592,0.1613,0.1666,0.1735,0.1828,0.1888,0.1996,0.21,0.217,0.2184,0.2213,0.2359,0.2403,0.255,0.2407,0.2526,0.2531,0.2473,0.2646,0.2408,0.2549,0.2654,0.266,0.2664,0,0.1509,0.1531,0.1556,0.1637,0.1655,0.1695,0.1842,0.1906,0.2081,0.2125,0.2276,0.2314,0.2522,0.2465,0.2735,0.2633,0.2709,0.2748,0.2754,0.2669,0.2505,0.2468,0.2604,0.2535,0.2714,0.271,0.2706,0,0.1501,0.155,0.1574,0.1591,0.1676,0.1737,0.1806,0.1961,0.2035,0.222,0.2264,0.25,0.2564,0.2746,0.2849,0.2801,0.3096,0.3012,0.3026,0.3016,0.2847,0.281,0.2976,0.3263,0.3263,0.3262,0.3262,0,0.1497,0.1524,0.1579,0.1595,0.1686,0.1744,0.1862,0.1973,0.2102,0.2202,0.234,0.2437,0.2638,0.2798,0.2918,0.3082,0.3164,0.3134,0.3102,0.2873,0.2839,0.2791,0.2757,0.3269,0.3267,0.3266,0.3265,0,0.1477,0.1493,0.1548,0.1637,0.1673,0.1749,0.1861,0.1941,0.2059,0.2183,0.2226,0.242,0.2611,0.2796,0.3048,0.3125,0.3203,0.333,0.3029,0.2961,0.2878,0.2857,0.296,0.2892,0.3394,0.3394,0.3393,0,0.1463,0.1475,0.1571,0.1605,0.1643,0.174,0.1794,0.1918,0.1976,0.2168,0.221,0.2411,0.2538,0.2862,0.3006,0.3215,0.3182,0.3147,0.305,0.2929,0.2884,0.2791,0.2718,0.2853,0.2848,0.2844,0.2841,0,0.1467,0.1496,0.1557,0.1593,0.1648,0.1701,0.1778,0.1814,0.1947,0.2031,0.2159,0.2268,0.2516,0.2617,0.2862,0.2969,0.2951,0.3072,0.3045,0.2606,0.2424,0.2315,0.2646,0.2806,0.281,0.2812,0.2814,0.2815,0.1495,0.1531,0.1578,0.1608,0.1641,0.1635,0.165,0.1714,0.1784,0.1882,0.2042,0.2141,0.2287,0.2564,0.2646,0.2643,0.2731,0.2618,0.2643,0.2593,0.2428,0.2682,0.2735,0.2738,0.2741,0.2743,0.2745,0,0.1526,0.1545,0.1572,0.1591,0.1544,0.1576,0.1603,0.1583,0.1613,0.1752,0.1844,0.1948,0.2019,0.2151,0.2229,0.2221,0.213,0.2227,0.204,0.2024,0.233,0.2202,0.202,0.202,0.202,0.202,0.202,0.202,0.156,0.1573,0.1549,0.1468,0.1444,0.1362,0.1344,0.1358,0.1419,0.1493,0.1554,0.166,0.1861,0.1963,0.1945,0.1908,0.1829,0.1737,0.1871,0.2048,0.2085,0.212,0.1995,0.1773,0.1773,0.1391,0.1389,0.1387]},{"header":{"parameterUnit":"m.s-1","parameterCategory":2,"la1":30.2991,"la2":30.254,"lo1":-89.0895,"lo2":-89.0444,"dy":0.0017,"dx":0.0017,"nx":28,"ny":28,"refTime":"2026-02-05T03:00:00:Z","depth":"0","parameterNumber":3,"parameterNumberName":"V-component_of_CURRENTS"},"data":[0,0,0,0,0,0,0,0,0,0,0,0,0,0,0,0,0,0,0,0,0,0,0,0,0,0,0,0,0,0,0,0,0,0,0,0,0,0,0,0,0,0,0,0,0,0,0,0,0,0,0,0,0,0,0,0,0,0,-0.028,-0.0281,0,-0.0326,-0.0327,-0.0327,-0.0362,-0.0363,-0.0363,-0.0364,-0.0387,-0.0388,-0.0388,0,0,0,0,0,0,0,0,0,0,0,0,0,-0.0237,-0.0237,-0.028,-0.0281,-0.0282,-0.0326,-0.0327,-0.0328,-0.0362,-0.0363,-0.0363,-0.0364,-0.0387,-0.0388,-0.0388,0,0,0,0,0,0,0,0,0,0,0,0,0,-0.0266,-0.0237,-0.028,-0.0305,-0.0307,-0.0326,-0.0327,-0.0328,-0.0362,-0.0363,-0.0363,-0.0364,-0.0387,-0.0388,-0.0388,-0.038,0,0,-0.0389,-0.039,0,0,0,0,0,0,0,0,-0.0264,-0.0267,-0.0301,-0.0303,-0.0306,-0.034,-0.032,-0.0344,-0.0362,-0.0341,-0.0364,-0.0364,-0.0369,-0.0371,-0.0378,-0.0381,-0.0382,-0.0389,-0.039,-0.039,-0.039,0,0,0,0,0,0,0,-0.0262,-0.0266,-0.0298,-0.0301,-0.0305,-0.0318,-0.0323,-0.0325,-0.0351,-0.0343,-0.0346,-0.0351,-0.0371,-0.0378,-0.0379,-0.0382,-0.0389,-0.039,-0.039,-0.039,-0.0358,-0.0357,0,0,0,0,0,0,-0.0256,-0.0264,-0.0297,-0.03,-0.0287,-0.0319,-0.0324,-0.0328,-0.0351,-0.0356,-0.0351,-0.0353,-0.0377,-0.0379,-0.038,-0.0321,-0.039,-0.039,-0.0391,-0.0359,-0.0358,-0.0357,0,0,0,0,0,0,-0.0255,-0.0258,-0.0295,-0.0283,-0.0289,-0.0319,-0.0323,-0.0329,-0.0337,-0.0358,-0.0362,-0.0354,-0.0377,-0.0379,-0.0389,-0.0324,-0.0391,-0.0391,-0.0361,-0.0359,-0.0357,-0.0235,0,0,0,0,0,0,-0.0253,-0.0258,-0.0254,-0.0283,-0.0289,-0.0304,-0.0323,-0.0329,-0.034,-0.0343,-0.0362,-0.0365,-0.0378,-0.0388,-0.0389,-0.0326,-0.0391,-0.0362,-0.036,-0.0358,-0.024,-0.0229,-0.022,0,0,0,0,0,-0.0252,-0.0245,-0.0253,-0.0257,-0.0285,-0.0304,-0.0309,-0.0332,-0.034,-0.0342,-0.0359,-0.0364,-0.0375,-0.0389,-0.039,-0.0325,-0.0363,-0.036,-0.0358,-0.0245,-0.0232,-0.022,0,0,0,0,0,0,-0.022,-0.0249,-0.0259,-0.026,-0.028,-0.031,-0.0311,-0.0328,-0.0343,-0.0341,-0.0364,-0.0368,-0.0347,-0.0366,-0.0381,-0.0313,-0.0363,-0.0361,-0.0277,-0.0264,-0.0254,-0.016,-0.0392,0,0,0,0,0,-0.0212,-0.0216,-0.0245,-0.0245,-0.0252,-0.028,-0.0289,-0.0304,-0.0324,-0.0331,-0.0349,-0.0354,-0.0336,-0.0329,-0.0335,-0.0304,-0.0306,-0.0262,-0.0251,-0.0242,-0.0169,-0.0141,-0.012,-0.0348,-0.0348,-0.0348,0,0,-0.0199,-0.0215,-0.0217,-0.0239,-0.0254,-0.0245,-0.0286,-0.0295,-0.0269,-0.0329,-0.0308,-0.0328,-0.0326,-0.029,-0.0278,-0.0296,-0.0193,-0.0239,-0.023,-0.016,-0.0136,-0.0113,-0.0093,-0.0347,-0.0347,-0.0347,0,0,-0.0175,-0.0189,-0.0184,-0.0194,-0.0214,-0.0222,-0.0222,-0.0252,-0.0245,-0.0244,-0.0256,-0.0225,-0.0253,-0.0196,-0.0177,-0.011,-0.0148,-0.0139,0.0008,0.0032,0.0053,0.0071,0.0044,0.006,-0.0122,-0.0122,-0.0122,0,-0.0153,-0.0146,-0.0184,-0.0178,-0.0156,-0.0205,-0.0168,-0.0173,-0.0201,-0.0144,-0.0227,-0.0154,-0.0178,-0.0035,-0.0022,-0.0072,-0.0103,-0.0038,0.0051,0.0069,0.0086,0.0055,0.007,-0.0116,-0.0116,-0.0117,-0.0118,0,-0.0126,-0.0111,-0.0106,-0.0099,-0.0086,-0.0068,-0.0068,-0.0042,-0.005,-0.0033,0.0061,0.0028,0.01,0.008,0.0046,0.0183,0.0103,0.005,0.003,0.0118,0.0076,0.009,-0.0107,-0.0109,-0.0111,-0.0112,0,0,-0.0085,-0.0082,-0.0077,-0.0027,-0.003,0.0002,0.0066,0.0153,0.0258,0.0217,0.0356,0.0377,0.0378,0.0404,0.0374,0.0395,0.0443,0.0277,0.0275,0.0271,0.045,0.0349,0.0352,0.0383,0.0388,0.0391,0.0354,0,-0.0038,0.0011,0.0007,0.0103,0.0147,0.0172,0.0263,0.0339,0.0375,0.0478,0.051,0.0584,0.0495,0.0526,0.0552,0.0466,0.0493,0.0457,0.0352,0.035,0.0268,0.0373,0.033,0.0292,0.0367,0.037,0.0371,0,0.0002,0.0043,0.0128,0.027,0.0301,0.0361,0.0559,0.0628,0.0763,0.0793,0.0889,0.0866,0.0944,0.0809,0.0792,0.0754,0.0648,0.0561,0.0555,0.0455,0.028,0.0225,0.0313,0.02,0.0392,0.039,0.0389,0,0.007,0.0154,0.0245,0.0272,0.0395,0.0499,0.0594,0.0743,0.0846,0.0989,0.1035,0.113,0.1117,0.1061,0.0864,0.0827,0.0781,0.0701,0.0534,0.0521,0.0474,0.0451,0.0477,0.0732,0.0732,0.0732,0.0732,0,0.0133,0.0218,0.029,0.0339,0.054,0.0596,0.0818,0.0924,0.1064,0.1181,0.1199,0.1254,0.1165,0.1099,0.0956,0.078,0.0856,0.0618,0.0542,0.0502,0.0484,0.0371,0.0325,0.073,0.0731,0.0731,0.0731,0,0.019,0.0211,0.0349,0.0497,0.056,0.0713,0.0919,0.1056,0.116,0.1293,0.1321,0.1339,0.124,0.1124,0.0988,0.0855,0.065,0.0639,0.0571,0.0491,0.0241,0.0203,0.0194,0.0161,0.0494,0.0491,0.049,0,0.0221,0.0276,0.0453,0.0549,0.062,0.0821,0.0949,0.1102,0.1196,0.1315,0.135,0.1315,0.1269,0.1054,0.0849,0.0647,0.0554,0.0462,0.0429,0.0283,0.0185,0.0155,0.0128,0.038,0.0377,0.0375,0.0373,0,0.0314,0.0363,0.0478,0.0636,0.0776,0.0938,0.1096,0.1175,0.1301,0.1368,0.1382,0.1358,0.1164,0.0948,0.069,0.0543,0.0397,0.041,0.031,0.0181,0.0109,0.0017,0.0301,0.0355,0.0357,0.0358,0.0359,0.036,0.0397,0.0494,0.0601,0.0761,0.0892,0.0988,0.1097,0.1184,0.1292,0.1334,0.1345,0.1277,0.1028,0.0677,0.0508,0.017,0.0226,0.0053,0.0038,0.0034,-0.0018,0.0206,0.0135,0.0136,0.0137,0.0137,0.0137,0,0.0495,0.0571,0.0711,0.0863,0.0948,0.1008,0.1138,0.1181,0.1222,0.1258,0.1252,0.1058,0.075,0.0472,0.0059,-0.0156,-0.0191,-0.0269,-0.0287,-0.0282,-0.0045,-0.0072,-0.0251,-0.0251,-0.0251,-0.0251,-0.0251,-0.025,0.0555,0.0671,0.0712,0.0843,0.0925,0.099,0.1034,0.1079,0.1113,0.1089,0.103,0.1005,0.0809,0.0129,-0.0332,-0.0435,-0.0532,-0.0591,-0.0606,-0.0443,-0.0413,-0.0385,-0.042,-0.0669,-0.0669,-0.0834,-0.0836,-0.0838]}],[{"header":{"parameterUnit":"m.s-1","parameterCategory":2,"la1":30.2991,"la2":30.254,"lo1":-89.0895,"lo2":-89.0444,"dy":0.0017,"dx":0.0017,"nx":28,"ny":28,"refTime":"2026-02-05T03:00:00:Z","depth":"2","parameterNumber":2,"parameterNumberName":"U-component_of_CURRENTS"},"data":[0,0,0,0,0,0,0,0,0,0,0,0,0,0,0,0,0,0,0,0,0,0,0,0,0,0,0,0,0,0,0,0,0,0,0,0,0,0,0,0,0,0,0,0,0,0,0,0,0,0,0,0,0,0,0,0,0,0,0.1182,0.1182,0,0.1168,0.1167,0.1167,0.1192,0.1193,0.1194,0.1196,0.1166,0.1164,0.1162,0,0,0,0,0,0,0,0,0,0,0,0,0,0.1164,0.1164,0.1182,0.1182,0.1182,0.1168,0.1167,0.1167,0.1192,0.1193,0.1195,0.1196,0.1167,0.1164,0.1162,0,0,0,0,0,0,0,0,0,0,0,0,0,0.1159,0.1164,0.1182,0.1196,0.1197,0.1168,0.1167,0.1166,0.1191,0.1193,0.1195,0.1197,0.1167,0.1165,0.1162,0.1108,0,0,0.1153,0.1152,0,0,0,0,0,0,0,0,0.116,0.1159,0.1194,0.1195,0.1196,0.1187,0.115,0.1147,0.1191,0.1189,0.1196,0.1198,0.1173,0.117,0.1158,0.1106,0.1105,0.1153,0.1151,0.115,0.1149,0,0,0,0,0,0,0,0.116,0.116,0.1172,0.1194,0.1195,0.1181,0.1182,0.1149,0.1168,0.119,0.1192,0.1197,0.1173,0.116,0.1157,0.1105,0.1153,0.115,0.1149,0.1147,0.1111,0.1112,0,0,0,0,0,0,0.1171,0.116,0.1173,0.1172,0.1187,0.118,0.1181,0.1185,0.1168,0.1169,0.1195,0.1198,0.1164,0.116,0.1156,0.122,0.115,0.1147,0.1146,0.111,0.1111,0.1112,0,0,0,0,0,0,0.1171,0.1172,0.1173,0.1169,0.1169,0.1179,0.1182,0.1184,0.1187,0.1174,0.1173,0.1199,0.1165,0.116,0.1153,0.1214,0.1146,0.1143,0.1109,0.111,0.1111,0.1264,0,0,0,0,0,0,0.117,0.1172,0.1175,0.117,0.117,0.116,0.1181,0.1182,0.1187,0.1191,0.1176,0.1175,0.1166,0.1158,0.1151,0.1209,0.1141,0.1108,0.111,0.1111,0.1258,0.127,0.1281,0,0,0,0,0,0.1169,0.1173,0.1175,0.1177,0.1175,0.116,0.1158,0.1168,0.1186,0.1179,0.1187,0.1176,0.1163,0.1156,0.1147,0.1206,0.1108,0.1109,0.1111,0.1253,0.1268,0.128,0,0,0,0,0,0,0.1166,0.1176,0.1179,0.1185,0.1174,0.1166,0.1167,0.117,0.1167,0.1184,0.1172,0.117,0.1193,0.1157,0.1149,0.1195,0.1137,0.1137,0.1248,0.1262,0.1273,0.1377,0.1139,0,0,0,0,0,0.1166,0.1175,0.117,0.1173,0.1172,0.1168,0.1165,0.1172,0.1172,0.1173,0.1169,0.117,0.1186,0.1191,0.1178,0.1186,0.1161,0.1218,0.123,0.124,0.1316,0.1356,0.1381,0.1117,0.1117,0.1117,0,0,0.1166,0.1173,0.1177,0.1173,0.117,0.1185,0.117,0.1173,0.1211,0.1168,0.121,0.1199,0.1192,0.1226,0.1233,0.121,0.127,0.1242,0.1252,0.1323,0.1361,0.1388,0.1411,0.1118,0.1118,0.1118,0,0,0.117,0.1175,0.1182,0.1181,0.1184,0.1195,0.1199,0.1196,0.1222,0.1235,0.1249,0.1293,0.1255,0.1316,0.1332,0.1389,0.1326,0.1354,0.1509,0.1546,0.157,0.1592,0.1472,0.1482,0.1367,0.1367,0.1367,0,0.1172,0.1184,0.1178,0.1187,0.1207,0.1207,0.123,0.1253,0.1256,0.1309,0.1264,0.1339,0.1327,0.1452,0.1495,0.143,0.1378,0.1464,0.1569,0.159,0.161,0.1483,0.1492,0.1375,0.1374,0.1373,0.1372,0,0.1177,0.1196,0.1201,0.1232,0.1246,0.1262,0.1301,0.1345,0.1372,0.1407,0.1506,0.1503,0.1562,0.1563,0.1559,0.1706,0.159,0.1575,0.1551,0.1647,0.1503,0.151,0.1386,0.1383,0.1381,0.1379,0,0,0.1176,0.1202,0.1207,0.1247,0.1278,0.1305,0.1393,0.1485,0.1576,0.1603,0.1703,0.1798,0.1811,0.1835,0.1829,0.1902,0.1953,0.1822,0.182,0.1731,0.1922,0.1745,0.1732,0.196,0.1965,0.1969,0.1723,0,0.1189,0.1226,0.1239,0.1315,0.1351,0.141,0.1494,0.1591,0.165,0.1736,0.1823,0.1872,0.1903,0.1911,0.2017,0.1955,0.2,0.2015,0.1822,0.1814,0.1674,0.1749,0.1717,0.1492,0.1729,0.173,0.1731,0,0.1194,0.1232,0.1285,0.14,0.1423,0.1479,0.165,0.1721,0.1864,0.1893,0.2013,0.2013,0.2133,0.2107,0.2156,0.2153,0.2092,0.205,0.2037,0.1859,0.1659,0.1456,0.1495,0.1742,0.1741,0.174,0.1739,0,0.1209,0.1281,0.1339,0.1365,0.1476,0.1559,0.1643,0.1789,0.1853,0.1978,0.1983,0.2129,0.2111,0.2163,0.2083,0.2112,0.2063,0.205,0.1835,0.181,0.1748,0.1713,0.2132,0.2132,0.2133,0.2134,0.2134,0,0.1223,0.128,0.136,0.1395,0.1524,0.1592,0.1724,0.1832,0.192,0.1977,0.2058,0.207,0.2141,0.21,0.208,0.1941,0.2038,0.1895,0.1791,0.1776,0.1749,0.1969,0.1954,0.2124,0.2126,0.2128,0.213,0,0.1226,0.1254,0.1354,0.1481,0.1524,0.1629,0.1736,0.181,0.1888,0.194,0.195,0.1994,0.1923,0.1918,0.1889,0.1849,0.1771,0.17,0.1594,0.1488,0.1477,0.1472,0.1438,0.143,0.1425,0.142,0.1415,0,0.1224,0.1265,0.1408,0.1454,0.1511,0.1633,0.1691,0.1796,0.1826,0.1877,0.1868,0.1817,0.1716,0.1552,0.1529,0.1392,0.1542,0.1279,0.1405,0.1532,0.1433,0.1437,0.1439,0.13,0.1295,0.1291,0.1288,0,0.1266,0.1316,0.1406,0.1467,0.1537,0.16,0.1674,0.1678,0.1756,0.1715,0.1638,0.1541,0.1417,0.1274,0.1122,0.1078,0.1309,0.1187,0.14,0.1486,0.1386,0.1293,0.1304,0.1253,0.1257,0.1259,0.1261,0.1263,0.1321,0.138,0.1455,0.1506,0.1548,0.1531,0.1538,0.1526,0.1479,0.1389,0.1379,0.1211,0.1181,0.0914,0.086,0.0898,0.0955,0.099,0.1011,0.1034,0.1069,0.0967,0.0749,0.075,0.075,0.0751,0.0751,0,0.1379,0.1413,0.1463,0.1502,0.1456,0.1493,0.1483,0.1418,0.1265,0.1203,0.1042,0.0876,0.0717,0.0768,0.0755,0.0685,0.0778,0.0702,0.0882,0.0912,0.0941,0.0983,0.0634,0.0634,0.0633,0.0633,0,0,0.1425,0.1459,0.1443,0.1373,0.1357,0.1271,0.1226,0.1123,0.1071,0.0862,0.0779,0.0667,0.0721,0.0674,0.0644,0.0675,0.0807,0.0656,0.0748,0.0992,0.1021,0.1089,0.1181,0,0,0,0,0]},{"header":{"parameterUnit":"m.s-1","parameterCategory":2,"la1":30.2991,"la2":30.254,"lo1":-89.0895,"lo2":-89.0444,"dy":0.0017,"dx":0.0017,"nx":28,"ny":28,"refTime":"2026-02-05T03:00:00:Z","depth":"2","parameterNumber":3,"parameterNumberName":"V-component_of_CURRENTS"},"data":[0,0,0,0,0,0,0,0,0,0,0,0,0,0,0,0,0,0,0,0,0,0,0,0,0,0,0,0,0,0,0,0,0,0,0,0,0,0,0,0,0,0,0,0,0,0,0,0,0,0,0,0,0,0,0,0,0,0,0.0001,0.0001,0,-0.0022,-0.0022,-0.0022,-0.0048,-0.0049,-0.0049,-0.005,-0.0057,-0.0056,-0.0056,0,0,0,0,0,0,0,0,0,0,0,0,0,0.0012,0.0012,0.0002,0.0001,0.0001,-0.0022,-0.0022,-0.0022,-0.0048,-0.0049,-0.0049,-0.005,-0.0057,-0.0056,-0.0056,0,0,0,0,0,0,0,0,0,0,0,0,0,0.0002,0.0012,0.0002,-0.0016,-0.0018,-0.0022,-0.0022,-0.0022,-0.0048,-0.0049,-0.005,-0.005,-0.0057,-0.0056,-0.0056,-0.0036,0,0,-0.0054,-0.0054,0,0,0,0,0,0,0,0,0.0002,0.0001,-0.0013,-0.0015,-0.0018,-0.0035,-0.0021,-0.0027,-0.0048,-0.0035,-0.005,-0.0051,-0.0048,-0.0049,-0.0049,-0.0036,-0.0037,-0.0054,-0.0054,-0.0054,-0.0054,0,0,0,0,0,0,0,0.0003,0.0002,-0.0006,-0.0014,-0.0016,-0.0028,-0.003,-0.0022,-0.0035,-0.0036,-0.0038,-0.0044,-0.0049,-0.0049,-0.0049,-0.0037,-0.0054,-0.0054,-0.0054,-0.0053,-0.0049,-0.0049,0,0,0,0,0,0,0.0004,0.0003,-0.0005,-0.0007,-0.0012,-0.0027,-0.0029,-0.0027,-0.0035,-0.0038,-0.0043,-0.0045,-0.005,-0.005,-0.0049,-0.0028,-0.0054,-0.0053,-0.0053,-0.0048,-0.0049,-0.0049,0,0,0,0,0,0,0.0004,0.0004,-0.0004,-0.0004,-0.0007,-0.0027,-0.0023,-0.0027,-0.0032,-0.0041,-0.0043,-0.0046,-0.005,-0.005,-0.0063,-0.0028,-0.0053,-0.0053,-0.0048,-0.0049,-0.0049,0.0017,0,0,0,0,0,0,0.0005,0.0004,0.0006,-0.0004,-0.0007,-0.0003,-0.0023,-0.0027,-0.0035,-0.0037,-0.0044,-0.0045,-0.0051,-0.0063,-0.0062,-0.0028,-0.0052,-0.0048,-0.0048,-0.0049,0.0015,0.0019,0.0022,0,0,0,0,0,0.0005,0.0012,0.0006,0.0005,-0.0003,-0.0003,-0.0004,-0.0021,-0.0034,-0.003,-0.0052,-0.0045,-0.0064,-0.0064,-0.0062,-0.0026,-0.0048,-0.0048,-0.0049,0.0013,0.0018,0.0022,0,0,0,0,0,0,0.0019,0.0009,0.0003,0.0007,0.0003,-0.0008,-0.001,-0.0019,-0.0031,-0.0041,-0.005,-0.0053,-0.0051,-0.0058,-0.0057,-0.0031,-0.0053,-0.0053,-0.0007,-0.0002,0.0002,0.0086,-0.0052,0,0,0,0,0,0.0023,0.0023,0.0016,0.0019,0.0017,0.0005,0.0001,-0.001,-0.0023,-0.003,-0.0041,-0.0052,-0.0049,-0.0043,-0.0053,-0.0033,-0.006,-0.0012,-0.0008,-0.0005,0.0061,0.0033,0.0042,-0.005,-0.005,-0.005,0,0,0.0028,0.0022,0.0023,0.0021,0.0015,0.0021,0.0001,-0.0005,0.0008,-0.0027,-0.0025,-0.0045,-0.0047,-0.0035,-0.0031,-0.0033,-0.0014,-0.0005,-0.0002,0.0064,0.0034,0.0044,0.0052,-0.005,-0.005,-0.005,0,0,0.004,0.0036,0.004,0.004,0.003,0.0027,0.0027,0.0012,0.0016,0.0006,-0.0009,-0.0001,-0.0023,0.0008,0.0017,0.0039,-0.0003,0.0017,0.0125,0.0095,0.0104,0.0111,0.0005,0.0003,0.0032,0.0032,0.0032,0,0.0047,0.0058,0.0043,0.0048,0.0065,0.0033,0.0058,0.0053,0.0034,0.0079,0.0008,0.0039,0.0014,0.0101,0.01,0.0058,0.0,0.011,0.0104,0.0111,0.0118,0.0008,0.0006,0.0035,0.0035,0.0034,0.0034,0,0.0064,0.0074,0.0078,0.0083,0.0098,0.0109,0.0111,0.0132,0.0116,0.0129,0.0181,0.0136,0.0181,0.0153,0.0134,0.02,0.0121,0.01,0.0102,0.0132,0.0012,0.0008,0.0039,0.0038,0.0037,0.0037,0,0,0.0085,0.0092,0.0095,0.0136,0.0126,0.0161,0.0194,0.0265,0.0339,0.0292,0.0375,0.0373,0.037,0.0383,0.0354,0.0337,0.0281,0.0251,0.0247,0.0163,0.0151,0.0128,0.0119,0.0249,0.025,0.0252,0.0017,0,0.0112,0.0147,0.0147,0.0216,0.0249,0.0273,0.034,0.0399,0.041,0.0465,0.0464,0.0493,0.0448,0.0455,0.0444,0.0314,0.0287,0.0344,0.0124,0.0117,0.011,0.0123,0.0159,-0.004,0.0012,0.0012,0.0011,0,0.0134,0.0167,0.0226,0.0348,0.0375,0.042,0.0574,0.0627,0.0702,0.0708,0.0749,0.0702,0.0697,0.0615,0.0479,0.0505,0.0371,0.0257,0.0244,0.0227,0.0093,-0.0046,-0.005,0.0004,0.0004,0.0005,0.0005,0,0.0179,0.0247,0.0313,0.0335,0.0438,0.053,0.0615,0.0722,0.0794,0.0851,0.0843,0.0856,0.0775,0.0674,0.0434,0.0447,0.0219,0.0193,0.0057,0.0047,0.005,0.0041,0.0138,0.0139,0.0139,0.014,0.014,0,0.0214,0.0282,0.0352,0.0389,0.0567,0.0617,0.0797,0.0883,0.095,0.1005,0.0975,0.093,0.0781,0.0616,0.0457,0.0223,0.023,0.0105,0.0021,0.006,0.0056,0.0098,0.0096,0.0131,0.0133,0.0134,0.0136,0,0.0249,0.0265,0.0383,0.0517,0.0578,0.0721,0.0893,0.0996,0.104,0.1072,0.1066,0.094,0.0722,0.0551,0.0297,0.0203,0.0011,-0.0067,-0.0046,-0.0116,-0.0155,-0.0151,-0.022,-0.0222,-0.0223,-0.0225,-0.0226,0,0.0265,0.0308,0.0478,0.057,0.0637,0.0823,0.0939,0.1046,0.1086,0.1044,0.1012,0.0828,0.0651,0.0286,0.013,-0.0111,-0.0108,-0.0215,-0.0115,-0.0099,-0.0175,-0.0168,-0.0162,-0.0159,-0.016,-0.016,-0.0161,0,0.0333,0.0385,0.0492,0.0648,0.0782,0.093,0.1055,0.1084,0.1134,0.1084,0.0922,0.0769,0.0467,0.0216,-0.0044,-0.017,-0.0152,-0.0229,-0.0224,-0.0041,-0.005,-0.0122,-0.0117,-0.0165,-0.0164,-0.0164,-0.0164,-0.0164,0.0406,0.0502,0.061,0.0768,0.0893,0.0968,0.1062,0.1079,0.108,0.0941,0.0798,0.057,0.0353,0.0007,-0.0159,-0.0226,-0.0225,-0.0257,-0.0253,-0.0248,-0.0165,-0.0172,-0.0301,-0.0301,-0.0302,-0.0302,-0.0302,0,0.0498,0.0578,0.0714,0.0869,0.0947,0.1006,0.1085,0.1088,0.1011,0.0862,0.0666,0.04,0.0129,-0.0023,-0.0121,-0.0247,-0.0213,-0.0274,-0.0204,-0.02,-0.0197,-0.0106,-0.023,-0.023,-0.023,-0.023,0,0,0.0555,0.0674,0.0718,0.085,0.0931,0.0988,0.1009,0.0979,0.0915,0.0715,0.0582,0.0296,0.0145,0.0049,-0.0107,-0.0134,-0.0127,-0.0138,-0.0185,-0.008,-0.0074,-0.0183,-0.0039,0,0,0,0,0]}],[{"header":{"parameterUnit":"m.s-1","parameterCategory":2,"la1":30.2991,"la2":30.254,"lo1":-89.0895,"lo2":-89.0444,"dy":0.0017,"dx":0.0017,"nx":28,"ny":28,"refTime":"2026-02-05T03:00:00:Z","depth":"4","parameterNumber":2,"parameterNumberName":"U-component_of_CURRENTS"},"data":[0,0,0,0,0,0,0,0,0,0,0,0,0,0,0,0,0,0,0,0,0,0,0,0,0,0,0,0,0,0,0,0,0,0,0,0,0,0,0,0,0,0,0,0,0,0,0,0,0,0,0,0,0,0,0,0,0,0,0.0288,0.0288,0,0.0267,0.0266,0.0266,0.026,0.0261,0.0262,0.0262,0.0299,0.0299,0.0299,0,0,0,0,0,0,0,0,0,0,0,0,0,0.032,0.0319,0.0288,0.0288,0.0289,0.0267,0.0266,0.0265,0.026,0.0261,0.0262,0.0263,0.0298,0.0299,0.0299,0,0,0,0,0,0,0,0,0,0,0,0,0,0.0297,0.0318,0.0288,0.0288,0.0288,0.0267,0.0266,0.0265,0.026,0.0261,0.0262,0.0263,0.0298,0.0299,0.0299,0.028,0,0,0.03,0.0301,0,0,0,0,0,0,0,0,0.0298,0.0295,0.0288,0.0288,0.0289,0.0273,0.0291,0.0275,0.026,0.0264,0.0262,0.0264,0.0299,0.0299,0.0283,0.0282,0.0283,0.0301,0.0301,0.0301,0.0301,0,0,0,0,0,0,0,0.03,0.0296,0.0273,0.0288,0.0289,0.0289,0.0286,0.0287,0.0271,0.0264,0.0265,0.0272,0.0299,0.0282,0.0284,0.0284,0.0301,0.0301,0.0301,0.0301,0.0346,0.0347,0,0,0,0,0,0,0.0314,0.0297,0.0274,0.0273,0.0303,0.0288,0.0284,0.0272,0.027,0.0272,0.0272,0.0272,0.0281,0.0283,0.0285,0.0341,0.0301,0.0301,0.0302,0.0345,0.0347,0.0348,0,0,0,0,0,0,0.0314,0.0311,0.0275,0.0291,0.0288,0.0287,0.0272,0.0271,0.0285,0.0277,0.0279,0.0292,0.0282,0.0285,0.0305,0.034,0.0302,0.0302,0.0344,0.0346,0.0347,0.0404,0,0,0,0,0,0,0.0315,0.0311,0.032,0.0291,0.0287,0.0289,0.0272,0.027,0.0289,0.0291,0.0294,0.0297,0.0283,0.0304,0.0305,0.034,0.0302,0.0343,0.0345,0.0347,0.0401,0.0407,0.0412,0,0,0,0,0,0.0316,0.0318,0.032,0.0319,0.0295,0.0291,0.0288,0.0287,0.029,0.0302,0.0298,0.0298,0.0316,0.0305,0.0306,0.0342,0.0342,0.0344,0.0346,0.0398,0.0406,0.0412,0,0,0,0,0,0,0.0343,0.0317,0.0319,0.0316,0.0321,0.0293,0.0305,0.0305,0.0307,0.0318,0.0303,0.0305,0.0341,0.0328,0.0316,0.0359,0.0333,0.0335,0.0372,0.0379,0.0384,0.0435,0.0303,0,0,0,0,0,0.0352,0.0346,0.0332,0.0338,0.0337,0.0327,0.0331,0.0336,0.033,0.0333,0.0335,0.0338,0.0343,0.0352,0.0357,0.0374,0.0327,0.0399,0.0405,0.041,0.0452,0.0391,0.0395,0.0354,0.0354,0.0354,0,0,0.0371,0.0356,0.0357,0.0345,0.034,0.0338,0.0331,0.0349,0.0369,0.0338,0.0368,0.0366,0.0354,0.0376,0.0391,0.0374,0.0385,0.0413,0.0417,0.0457,0.0394,0.0398,0.0401,0.0356,0.0356,0.0355,0,0,0.0395,0.0384,0.0387,0.0389,0.0399,0.0376,0.0391,0.0386,0.041,0.0431,0.0419,0.0441,0.044,0.0444,0.0441,0.0483,0.0422,0.0484,0.0551,0.0491,0.0493,0.0496,0.0386,0.0378,0.0481,0.0481,0.0481,0,0.0422,0.0411,0.0396,0.0402,0.0414,0.0395,0.0414,0.042,0.0433,0.0463,0.0457,0.0476,0.0476,0.05,0.0526,0.0502,0.0435,0.0522,0.0498,0.0499,0.05,0.0388,0.0379,0.0484,0.0483,0.0483,0.0483,0,0.0445,0.0445,0.0447,0.0434,0.0452,0.046,0.0471,0.0497,0.0512,0.052,0.0576,0.0567,0.0587,0.0583,0.0575,0.0597,0.0532,0.0512,0.0479,0.0508,0.0387,0.0376,0.0488,0.0487,0.0486,0.0485,0,0,0.046,0.0459,0.0463,0.0473,0.0473,0.0484,0.0525,0.0551,0.0576,0.0609,0.064,0.0686,0.0701,0.0703,0.0691,0.0656,0.0596,0.0606,0.0601,0.0496,0.0417,0.0451,0.0441,0.0559,0.0559,0.0559,0.0308,0,0.0477,0.048,0.0497,0.052,0.051,0.054,0.0575,0.0616,0.063,0.0646,0.0679,0.0699,0.0736,0.0745,0.0731,0.063,0.0581,0.0665,0.0409,0.0402,0.0428,0.0436,0.0559,0.0299,0.0297,0.0295,0.0293,0,0.0493,0.0477,0.0509,0.0542,0.0554,0.0598,0.0648,0.068,0.0707,0.0731,0.0773,0.0764,0.0775,0.0772,0.0658,0.0702,0.06,0.0506,0.0493,0.0517,0.042,0.0278,0.0273,0.0274,0.0276,0.0277,0.0279,0,0.0477,0.0498,0.0522,0.0533,0.0563,0.0643,0.0678,0.0726,0.074,0.0787,0.0752,0.0791,0.0744,0.0686,0.0561,0.0595,0.0361,0.036,0.0283,0.0279,0.0294,0.0295,0.0272,0.0273,0.0273,0.0274,0.0275,0,0.0472,0.0487,0.0534,0.0541,0.0603,0.0661,0.0733,0.0776,0.0791,0.0732,0.0807,0.0723,0.0718,0.0587,0.0522,0.037,0.0328,0.0314,0.0241,0.0313,0.032,0.0281,0.0285,0.0265,0.0267,0.0268,0.027,0,0.044,0.048,0.0486,0.0547,0.0599,0.0649,0.0746,0.0745,0.0784,0.0691,0.0694,0.0633,0.05,0.0449,0.0276,0.0272,0.0147,0.009,0.013,0.0059,0.0105,0.0115,0.0003,0.0003,0.0003,0.0003,0.0002,0,0.0431,0.0417,0.0465,0.0511,0.0567,0.0653,0.0687,0.0754,0.0692,0.0582,0.0472,0.038,0.0331,0.0133,0.0111,0.002,0.0026,-0.0039,0.0134,0.015,0.0088,0.0099,0.0109,0.0002,0.0002,0.0002,0.0002,0,0.0344,0.0358,0.0358,0.042,0.0503,0.0534,0.0565,0.0531,0.0497,0.0485,0.0308,0.0276,0.0111,0.0087,0.0033,-0.0042,0.0034,-0.0041,-0.0039,0.0123,0.0146,0.0088,0.0098,0.0001,0.0001,0.0001,0.0001,0,0.0258,0.0247,0.025,0.0328,0.0404,0.0411,0.0456,0.0389,0.0368,0.025,0.0153,0.0084,0.0041,0.0036,-0.0055,-0.0048,-0.0017,0.0017,0.0017,0.0018,0.016,0.02,0.0019,0,0,0,0,0,0.015,0.0136,0.0164,0.0241,0.0302,0.0343,0.0341,0.035,0.0287,0.0164,0.0189,0.006,0.0024,-0.0012,0.0004,-0.0055,-0.0026,-0.0037,0.0011,-0.0005,-0.0004,0.0175,0,0,0,0,0,0,0.0063,0.0066,0.0102,0.0145,0.0192,0.0223,0.0236,0.0197,0.0146,0.0102,0.0093,0.007,0.0043,0.0016,0.0002,-0.0005,0.0033,-0.0061,-0.006,-0.0005,-0.0004,-0.0003,0.018,0,0,0,0,0]},{"header":{"parameterUnit":"m.s-1","parameterCategory":2,"la1":30.2991,"la2":30.254,"lo1":-89.0895,"lo2":-89.0444,"dy":0.0017,"dx":0.0017,"nx":28,"ny":28,"refTime":"2026-02-05T03:00:00:Z","depth":"4","parameterNumber":3,"parameterNumberName":"V-component_of_CURRENTS"},"data":[0,0,0,0,0,0,0,0,0,0,0,0,0,0,0,0,0,0,0,0,0,0,0,0,0,0,0,0,0,0,0,0,0,0,0,0,0,0,0,0,0,0,0,0,0,0,0,0,0,0,0,0,0,0,0,0,0,0,0.0351,0.0351,0,0.0391,0.0391,0.0391,0.044,0.0441,0.0442,0.0443,0.0465,0.0465,0.0465,0,0,0,0,0,0,0,0,0,0,0,0,0,0.0286,0.0287,0.0351,0.0352,0.0352,0.0391,0.0391,0.0391,0.044,0.0441,0.0442,0.0443,0.0465,0.0465,0.0465,0,0,0,0,0,0,0,0,0,0,0,0,0,0.0318,0.0288,0.0351,0.0382,0.0385,0.039,0.0391,0.0392,0.044,0.0441,0.0442,0.0444,0.0465,0.0465,0.0465,0.0436,0,0,0.0464,0.0463,0,0,0,0,0,0,0,0,0.0316,0.032,0.0377,0.038,0.0383,0.0413,0.0377,0.0406,0.0439,0.0418,0.0443,0.0444,0.0446,0.0447,0.045,0.0437,0.0438,0.0464,0.0463,0.0463,0.0463,0,0,0,0,0,0,0,0.0314,0.0319,0.0366,0.0377,0.0381,0.0383,0.0389,0.0382,0.0423,0.042,0.0424,0.0429,0.0447,0.045,0.0451,0.0439,0.0464,0.0463,0.0463,0.0463,0.0378,0.0376,0,0,0,0,0,0,0.0312,0.0317,0.0364,0.0367,0.0354,0.0383,0.039,0.0401,0.0423,0.0429,0.0428,0.0432,0.045,0.0451,0.0452,0.0396,0.0463,0.0463,0.0463,0.038,0.0378,0.0375,0,0,0,0,0,0,0.031,0.0316,0.0363,0.0343,0.035,0.0384,0.0395,0.0401,0.0414,0.043,0.0435,0.0437,0.0451,0.0453,0.0451,0.0398,0.0463,0.0462,0.0383,0.0379,0.0377,0.0299,0,0,0,0,0,0,0.0308,0.0315,0.0321,0.0343,0.0351,0.0366,0.0394,0.0401,0.0416,0.0421,0.0438,0.0442,0.0453,0.0452,0.0451,0.0399,0.0462,0.0385,0.0381,0.0378,0.0305,0.0294,0.0285,0,0,0,0,0,0.0306,0.031,0.0321,0.0327,0.0358,0.0366,0.0369,0.0397,0.0415,0.0415,0.043,0.0442,0.0426,0.0451,0.045,0.0397,0.0387,0.0382,0.0378,0.0309,0.0296,0.0285,0,0,0,0,0,0,0.0285,0.0316,0.0329,0.0342,0.0353,0.0375,0.0378,0.0395,0.0406,0.0412,0.0431,0.0434,0.0405,0.0415,0.0442,0.0359,0.0401,0.0396,0.0348,0.0337,0.0327,0.0293,0.0462,0,0,0,0,0,0.0281,0.0294,0.0317,0.0326,0.0331,0.0353,0.0361,0.0376,0.0389,0.0397,0.0409,0.0406,0.038,0.0376,0.0365,0.0332,0.0318,0.0291,0.0281,0.0273,0.0243,0.0142,0.012,0.036,0.036,0.036,0,0,0.0276,0.0294,0.0302,0.0322,0.0333,0.0328,0.0361,0.0368,0.035,0.0394,0.0378,0.0377,0.0365,0.0323,0.0308,0.033,0.0213,0.0267,0.026,0.0234,0.0135,0.0111,0.009,0.0357,0.0358,0.0358,0,0,0.0263,0.0285,0.0289,0.0294,0.0309,0.0312,0.0314,0.0331,0.0327,0.0318,0.0322,0.0283,0.0289,0.0239,0.022,0.0145,0.0164,0.0155,0.0077,-0.002,-0.0042,-0.0061,-0.0041,-0.0058,0.0149,0.0149,0.0149,0,0.0255,0.0262,0.0287,0.0286,0.0279,0.0303,0.0287,0.0278,0.029,0.0255,0.0306,0.0224,0.0228,0.0115,0.0101,0.0115,0.0115,0.0126,-0.0035,-0.0055,-0.0073,-0.005,-0.0067,0.0145,0.0145,0.0146,0.0146,0,0.0241,0.0245,0.0243,0.0245,0.0237,0.0229,0.0219,0.0196,0.02,0.0181,0.0096,0.0089,0.0034,0.0023,0.0051,-0.0092,-0.0026,-0.0035,-0.0007,-0.0103,-0.0069,-0.0087,0.0138,0.014,0.0141,0.0142,0,0,0.0229,0.0232,0.0233,0.0215,0.0213,0.0198,0.0147,0.0087,0.0029,0.0018,-0.0068,-0.0128,-0.0135,-0.016,-0.016,-0.0236,-0.0327,-0.0179,-0.0182,-0.016,-0.0454,-0.0338,-0.0344,-0.036,-0.0366,-0.037,-0.0353,0,0.0207,0.0187,0.0192,0.0151,0.0131,0.0113,0.0059,0.0002,-0.0036,-0.0109,-0.0177,-0.0237,-0.0206,-0.0226,-0.031,-0.0318,-0.0386,-0.0325,-0.0365,-0.0365,-0.0255,-0.0368,-0.0386,-0.0366,-0.037,-0.0373,-0.0375,0,0.0189,0.0173,0.0139,0.0081,0.0069,0.0048,-0.006,-0.0102,-0.0212,-0.0243,-0.0339,-0.0362,-0.0466,-0.0422,-0.0536,-0.0485,-0.0488,-0.0495,-0.0495,-0.0387,-0.0287,-0.0269,-0.0406,-0.0403,-0.0401,-0.0399,-0.0397,0,0.016,0.0127,0.0092,0.0081,0.0028,-0.0011,-0.0046,-0.0146,-0.0211,-0.0323,-0.0359,-0.0497,-0.0514,-0.0606,-0.057,-0.0569,-0.0655,-0.0663,-0.0572,-0.0557,-0.0626,-0.0607,-0.0799,-0.0799,-0.0799,-0.0799,-0.0799,0,0.0132,0.0101,0.008,0.0065,-0.0012,-0.003,-0.0127,-0.0185,-0.0277,-0.0337,-0.0415,-0.0456,-0.0565,-0.0599,-0.0614,-0.0603,-0.0694,-0.0613,-0.0587,-0.0643,-0.0627,-0.0632,-0.0613,-0.0798,-0.0798,-0.0798,-0.0799,0,0.0107,0.0104,0.005,-0.0,-0.0018,-0.007,-0.0147,-0.0222,-0.0274,-0.0345,-0.0371,-0.0439,-0.0452,-0.0519,-0.0605,-0.061,-0.0646,-0.0623,-0.0596,-0.0562,-0.0469,-0.0454,-0.057,-0.0567,-0.0564,-0.0562,-0.056,0,0.009,0.007,0.001,-0.0025,-0.0039,-0.0107,-0.0158,-0.0222,-0.026,-0.0301,-0.031,-0.0348,-0.0378,-0.0416,-0.0469,-0.0521,-0.0528,-0.054,-0.0616,-0.0503,-0.0466,-0.0455,-0.0444,-0.0555,-0.0555,-0.0554,-0.0553,0,0.0048,0.0037,-0.0001,-0.0057,-0.01,-0.0179,-0.0209,-0.0234,-0.0263,-0.0306,-0.0292,-0.0326,-0.0313,-0.0367,-0.0382,-0.0423,-0.055,-0.0512,-0.052,-0.0592,-0.0486,-0.0449,-0.0442,-0.0544,-0.0545,-0.0546,-0.0546,0,0.0018,-0.0021,-0.0045,-0.0104,-0.0159,-0.0204,-0.0239,-0.0244,-0.0285,-0.0284,-0.025,-0.0267,-0.0282,-0.0305,-0.0314,-0.0348,-0.0387,-0.0439,-0.0452,-0.0463,-0.0438,-0.0289,-0.0297,0,0,0,0,0,-0.0013,-0.0044,-0.0096,-0.0151,-0.0199,-0.023,-0.0253,-0.0267,-0.0246,-0.0245,-0.0258,-0.0242,-0.0261,-0.026,-0.0283,-0.0264,-0.0382,-0.0288,-0.0449,-0.049,-0.0501,-0.0482,0,0,0,0,0,0,-0.0037,-0.007,-0.0095,-0.0156,-0.0203,-0.0257,-0.0277,-0.027,-0.0258,-0.0237,-0.0253,-0.025,-0.0272,-0.026,-0.0288,-0.0289,-0.0394,-0.0295,-0.0295,-0.0484,-0.0494,-0.0503,-0.0487,0,0,0,0,0]}]]